Atlantic City, NJ

11:41 PM EDT on September 22, 2019 (GMT -0400)
Atlantic City International

Weather History for KACY - August, 2019

Change the Weather History Date:

Wednesday, August 21, 2019

  Actual Average Record
Temperature  
Mean Temperature 82 °F 74 °F  
Max Temperature 91 °F 83 °F 94 °F (2005)
Min Temperature 73 °F 65 °F 49 °F (1995)
Degree Days  
Heating Degree Days 0 0  
Month to date heating degree days 0 0  
Since 1 June heating degree days 5 27  
Since 1 July heating degree days 0 0  
Cooling Degree Days 18 9  
Month to date cooling degree days 283 214  
Year to date cooling degree days 1104 828  
Since 1 June cooling degree days 1004 764  
Growing Degree Days 32 (Base 50)    
Moisture  
Dew Point 73 °F    
Average Humidity 79    
Maximum Humidity 94    
Minimum Humidity 52    
Precipitation  
Precipitation 0.20 in 0.13 in 2.40 in (1997)
Month to date precipitation 1.50 2.94  
Year to date precipitation 29.62 27.05  
Snow  
Snow 0.00 in 0.00 in 0.00 in ()
Month to date snowfall 0.0 0.0  
Since 1 June snowfall 0.0 0.0  
Since 1 July snowfall 0.0 0.0  
Snow Depth 0.00 in    
Sea Level Pressure  
Sea Level Pressure 29.97 in    
Wind  
Wind Speed 7 mph ()    
Max Wind Speed 21 mph    
Max Gust Speed 33 mph    
Visibility 7.5 miles    
Events Rain    
T = Trace of Precipitation, MM = Missing Value Source: Averaged Metar Reports

Daily Weather History Graph

Daily Weather History Graph

Search for Another Location

Airport or City:

Astronomy

Aug. 21, 2019 Rise Set
Actual Time 6:16 AM EDT 7:46 PM EDT
Civil Twilight 5:47 AM EDT 8:14 PM EDT
Nautical Twilight 5:13 AM EDT 8:48 PM EDT
Astronomical Twilight 4:37 AM EDT 9:24 PM EDT
Moon 11:04 PM EDT (8/21) 11:48 AM EDT (8/21)
Length of Visible Light 14h 26m
Length of Day
13h 29m
Waning Gibbous, 69% of the Moon is Illuminated
Aug 21
Waning Gibbous
Aug 23
Last Quarter
Aug 30
New
Sep 5
First Quarter
Sep 14
Full

Hourly Weather History & Observations

Time (EDT) Temp. Heat Index Dew Point Humidity Pressure Visibility Wind Dir Wind Speed Gust Speed Precip Events Conditions
12:22 AM 79.0 °F - 75.0 °F 88% 30.05 in 8.0 mi SSW 5.8 mph - N/A   Scattered Clouds
12:32 AM 79.0 °F - 75.0 °F 88% 30.06 in 8.0 mi SSW 5.8 mph - N/A   Mostly Cloudy
12:39 AM 79.0 °F - 75.0 °F 88% 30.06 in 8.0 mi SSW 5.8 mph - N/A   Mostly Cloudy
12:54 AM 79.0 °F - 75.0 °F 88% 30.05 in 8.0 mi SW 5.8 mph - N/A   Overcast
1:54 AM 79.0 °F - 75.0 °F 88% 30.03 in 6.0 mi WSW 4.6 mph - N/A   Scattered Clouds
2:54 AM 77.0 °F - 73.9 °F 90% 30.01 in 4.0 mi Calm Calm - N/A   Clear
3:54 AM 75.0 °F - 73.0 °F 94% 30.00 in 4.0 mi ESE 3.5 mph - N/A   Clear
4:54 AM 75.9 °F - 73.0 °F 91% 29.98 in 2.5 mi South 3.5 mph - N/A   Clear
5:02 AM 78.1 °F - 75.0 °F 90% 29.99 in 5.0 mi South 4.6 mph - N/A   Clear
5:39 AM 77.0 °F - 73.9 °F 90% 29.99 in 5.0 mi South 5.8 mph - N/A   Scattered Clouds
5:50 AM 77.0 °F - 73.4 °F 89% 29.99 in 2.0 mi South 5.8 mph - N/A   Mostly Cloudy
5:51 AM 78.1 °F - 73.9 °F 87% 29.99 in 2.0 mi South 4.6 mph - N/A   Mostly Cloudy
6:32 AM 78.1 °F - 75.0 °F 90% 30.00 in 2.0 mi South 5.8 mph - N/A   Mostly Cloudy
6:54 AM 78.1 °F - 73.9 °F 87% 30.01 in 5.0 mi SSW 9.2 mph - N/A   Scattered Clouds
7:29 AM 75.0 °F - 71.1 °F 87% 30.02 in 1.8 mi SSW 8.1 mph - 0.05 in Rain Heavy Rain
7:38 AM 73.9 °F - 70.0 °F 87% 30.01 in 5.0 mi South 6.9 mph - 0.18 in Rain Heavy Rain
7:54 AM 73.9 °F - 70.0 °F 87% 30.01 in 10.0 mi South 8.1 mph - 0.20 in   Overcast
8:54 AM 78.1 °F - 72.0 °F 81% 30.00 in 10.0 mi South 8.1 mph - N/A   Clear
9:54 AM 82.9 °F 89.4 °F 73.9 °F 74% 29.99 in 10.0 mi SW 11.5 mph - N/A   Clear
10:54 AM 87.1 °F 94.5 °F 73.0 °F 63% 29.98 in 10.0 mi SSW 12.7 mph - N/A   Mostly Cloudy
11:13 AM 87.1 °F 94.5 °F 73.0 °F 63% 29.97 in 10.0 mi SW 12.7 mph 19.6 mph N/A   Scattered Clouds
11:54 AM 89.1 °F 96.0 °F 72.0 °F 57% 29.96 in 10.0 mi SSW 16.1 mph 26.5 mph N/A   Partly Cloudy
12:54 PM 88.0 °F 94.7 °F 72.0 °F 59% 29.95 in 10.0 mi SW 15.0 mph 23.0 mph N/A   Scattered Clouds
1:54 PM 90.0 °F 97.9 °F 73.0 °F 57% 29.93 in 10.0 mi SSW 13.8 mph 21.9 mph N/A   Partly Cloudy
2:54 PM 90.0 °F 96.4 °F 71.1 °F 54% 29.91 in 10.0 mi WSW 13.8 mph 25.3 mph N/A   Clear
3:54 PM 91.0 °F 98.2 °F 72.0 °F 53% 29.90 in 10.0 mi SW 16.1 mph 23.0 mph N/A   Clear
4:54 PM 87.1 °F 95.4 °F 73.9 °F 65% 29.90 in 10.0 mi South 12.7 mph - N/A   Scattered Clouds
5:54 PM 86.0 °F 92.2 °F 72.0 °F 63% 29.90 in 10.0 mi South 11.5 mph 23.0 mph N/A   Clear
6:54 PM 82.9 °F 89.4 °F 73.9 °F 74% 29.88 in 10.0 mi SSW 19.6 mph 28.8 mph N/A   Clear
7:54 PM 81.0 °F 84.4 °F 70.0 °F 69% 29.90 in 10.0 mi SSW 9.2 mph 21.9 mph N/A   Clear
8:54 PM 79.0 °F - 72.0 °F 79% 29.89 in 10.0 mi South 9.2 mph - N/A   Clear
9:54 PM 78.1 °F - 72.0 °F 81% 29.89 in 10.0 mi SW 6.9 mph - N/A   Clear
10:54 PM 77.0 °F - 72.0 °F 84% 29.89 in 10.0 mi SW 5.8 mph - N/A   Clear
11:54 PM 77.0 °F - 73.0 °F 88% 29.89 in 10.0 mi Calm Calm - N/A   Clear